Lid_Strength_Index
5 5 5 5 5 5 5 5 4 4 4 4 3 3 2 2 2 5 8 5 4 2 3 9 9 9 9 11 12 12 16 16 14 13 12 9 12 9 7 8 9 7 7 6 7
6 6 6 6 6 6 6 5 5 5 5 4 3 3 3 2 5 7 4 1 0 0 8 10 11 10 12 12 12 14 16 17 14 12 12 12 12 11 14 14 13 13 9 8 8
6 6 6 6 6 6 6 6 6 5 5 4 4 3 3 2 8 9 1 -1 -1 2 9 10 11 11 14 14 13 14 16 13 12 12 13 14 15 14 15 15 14 14 12 9 10
7 7 7 7 7 6 6 6 6 6 6 6 5 4 3 5 13 9 3 0 0 6 9 11 13 14 15 15 13 16 14 13 12 11 12 14 14 16 15 14 13 13 12 12 10
7 7 7 7 6 6 6 6 6 5 5 5 5 4 6 11 13 9 5 4 5 7 10 12 14 14 16 15 14 16 15 14 13 13 13 13 13 13 14 14 14 14 13 13 12
6 6 6 6 6 5 5 5 5 5 5 4 4 3 8 15 9 8 8 8 5 6 7 10 12 12 15 15 15 14 14 15 14 14 14 14 14 14 12 11 13 13 13 12 12
6 6 6 6 6 6 5 5 3 3 2 3 3 4 12 14 10 9 10 9 9 9 9 8 9 12 13 15 13 13 16 15 14 15 15 14 15 15 12 11 11 11 11 12 12
6 6 6 6 6 6 5 4 2 2 2 2 2 6 13 9 10 10 10 10 8 9 9 8 9 11 13 12 14 15 16 20 15 13 13 13 18 14 13 13 13 13 12 11 10
6 6 6 6 6 6 5 3 2 3 2 4 7 11 16 9 12 11 11 12 9 9 10 8 10 13 13 16 17 18 19 18 16 13 13 13 16 13 12 14 14 13 14 13 11
6 6 6 6 6 6 5 5 4 6 7 7 10 13 14 15 12 12 11 11 10 10 11 12 13 16 16 17 20 19 19 18 18 16 14 14 15 13 12 13 14 13 13 14 13
6 6 6 5 6 6 8 11 13 12 12 14 15 15 14 12 10 13 11 12 12 13 17 14 17 19 17 16 16 16 17 18 17 14 14 15 15 14 13 13 13 12 12 12 12
5 5 5 5 6 6 10 13 13 12 16 12 13 14 12 12 16 14 11 16 15 18 16 17 19 18 16 15 15 16 17 18 16 14 14 15 15 14 13 13 14 12 12 12 11
5 6 6 6 7 10 11 12 9 11 15 15 13 14 14 13 16 16 13 15 17 18 19 20 18 17 18 18 20 21 22 18 17 14 13 15 16 15 13 12 12 11 11 11 12
6 6 6 7 11 12 13 10 9 10 24 19 17 15 13 14 17 13 12 14 17 19 19 20 19 19 19 20 20 23 18 18 18 18 20 14 20 16 14 13 12 11 12 11 11
6 6 6 7 13 13 11 9 9 11 28 18 17 12 13 16 16 16 12 14 18 19 20 22 21 21 21 21 19 21 18 18 19 19 16 18 18 18 14 15 13 12 11 14 14
5 5 7 10 12 11 10 9 11 21 30 23 17 17 17 16 16 16 15 14 15 18 20 20 17 18 20 19 18 16 19 18 17 15 19 17 16 18 17 15 13 12 14 13 13
5 5 9 9 14 10 10 12 22 26 22 25 21 17 18 19 18 18 19 20 23 28 25 21 20 18 17 21 17 15 16 21 20 20 20 14 16 16 12 12 13 14 15 14 14
5 6 9 10 10 10 14 19 26 29 28 17 18 18 20 19 19 19 20 22 22 22 24 26 26 20 17 18 22 17 16 20 24 21 20 15 17 17 13 12 13 14 15 15 16
6 12 13 10 9 13 17 27 28 24 19 19 19 22 27 20 21 21 22 24 24 22 26 27 23 17 16 16 15 18 18 15 19 19 22 16 14 12 13 14 15 16 16 17 17
12 14 14 10 11 15 21 26 25 16 17 17 24 21 31 28 24 24 22 23 20 17 19 21 25 18 17 15 14 15 14 20 19 25 26 18 18 19 15 16 16 17 18 18 18
13 18 13 10 14 18 26 30 20 16 16 18 20 24 22 24 24 27 24 19 20 18 17 24 23 20 17 21 19 17 18 18 18 19 24 26 19 13 15 16 17 18 18 18 19
16 21 13 13 21 31 29 22 16 17 16 17 18 18 21 20 25 25 25 21 18 19 21 19 22 25 21 17 14 14 17 17 22 23 21 21 20 13 14 16 16 17 17 18 18
20 20 13 15 25 31 25 20 17 17 17 18 18 17 18 20 27 21 19 17 16 18 24 18 26 32 26 23 17 22 16 17 17 17 22 24 21 12 14 16 16 16 16 17 17
20 23 20 19 20 23 28 24 22 16 18 18 19 18 19 21 18 26 20 17 15 16 13 17 30 27 29 24 21 25 20 17 20 23 22 21 20 15 16 17 17 17 16 17 18
20 22 24 27 25 26 23 20 20 20 19 17 19 21 25 28 23 22 19 18 16 15 16 20 28 28 22 20 19 20 22 20 19 17 20 19 17 17 16 17 17 17 16 17 17
21 23 24 26 22 25 23 22 20 19 21 22 24 18 19 26 22 22 20 20 20 20 23 22 26 28 23 19 18 21 20 21 16 15 16 16 17 14 14 15 17 17 17 17 17
18 17 19 22 27 26 25 20 18 18 18 17 19 19 19 18 17 18 18 17 17 22 20 22 27 33 31 21 22 31 24 22 18 16 17 20 17 14 15 16 17 17 18 17 16